Moriarty, NM

8:54 PM MST on December 04, 2016 (GMT -0700)
Moriarty

Weather History for K0E0 - July, 2013

Change the Weather History Date:

Saturday, July 27, 2013

  Actual Average (KABQ) Record (KABQ)
Temperature  
Mean Temperature 68 °F 78 °F  
Max Temperature 80 °F 89 °F 103 °F (1979)
Min Temperature 55 °F 67 °F 46 °F (1913)
Degree Days  
Heating Degree Days 0 0  
Month to date heating degree days 0  
Since 1 June heating degree days 4  
Since 1 July heating degree days 0  
Cooling Degree Days 2 13  
Month to date cooling degree days 362  
Year to date cooling degree days 762  
Since 1 June cooling degree days 664  
Growing Degree Days 18 (Base 50)    
Moisture  
Dew Point 54 °F    
Average Humidity 65    
Maximum Humidity 92    
Minimum Humidity 32    
Precipitation  
Precipitation 0.00 in 0.06 in 0.88 in (1964)
Month to date precipitation 1.27  
Year to date precipitation 4.47  
Snow  
Snow 0.00 in - - ()
Month to date snowfall  
Since 1 June snowfall  
Since 1 July snowfall  
Snow Depth -    
Sea Level Pressure  
Sea Level Pressure 30.29 in    
Wind  
Wind Speed 8 mph (SW)    
Max Wind Speed 17 mph    
Max Gust Speed 21 mph    
Visibility 10 miles    
Events      
T = Trace of Precipitation, MM = Missing Value Source: NWS Daily Summary

Daily Weather History Graph

Daily Weather History Graph

Search for Another Location

Airport or City:

Trip Planner

Search our weather history database for the weather conditions in past years. The results will help you decide how hot, cold, wet, or windy it might be!

Date:

Astronomy

Jul. 27, 2013 Rise Set
Actual Time 6:10 AM MDT 8:10 PM MDT
Civil Twilight 5:41 AM MDT 8:38 PM MDT
Nautical Twilight 5:07 AM MDT 9:12 PM MDT
Astronomical Twilight 4:30 AM MDT 9:49 PM MDT
Moon 11:16 PM MDT (7/27) 11:37 AM MDT (7/27)
Length of Visible Light 14h 56m
Length of Day
14h 00m
Waning Gibbous, 70% of the Moon is Illuminated
Jul 27
Waning Gibbous
Jul 29
Last Quarter
Aug 6
New
Aug 14
First Quarter
Aug 20
Full

Hourly Weather History & Observations

Time (MDT) Temp. Dew Point Humidity Pressure Visibility Wind Dir Wind Speed Gust Speed Precip Events Conditions
12:15 AM 60.6 °F 53.4 °F 77% 30.39 in 10.0 mi SW 17.3 mph - N/A   Overcast
12:35 AM 62.1 °F 51.8 °F 69% 30.37 in 10.0 mi SW 16.1 mph - N/A   Overcast
12:55 AM 64.8 °F 51.6 °F 62% 30.38 in 10.0 mi SW 13.8 mph 19.6 mph N/A   Overcast
1:15 AM 62.8 °F 52.7 °F 70% 30.40 in 10.0 mi SW 5.8 mph - N/A   Overcast
1:35 AM 61.7 °F 54.3 °F 77% 30.41 in 10.0 mi Calm Calm - N/A   Mostly Cloudy
1:55 AM 61.7 °F 54.0 °F 76% 30.41 in 10.0 mi ESE 4.6 mph - N/A   Mostly Cloudy
2:15 AM 62.2 °F 52.9 °F 71% 30.41 in 10.0 mi Calm Calm - N/A   Scattered Clouds
2:35 AM 62.2 °F 52.9 °F 71% 30.40 in 10.0 mi Calm Calm - N/A   Scattered Clouds
2:55 AM 61.0 °F 54.7 °F 80% 30.39 in 10.0 mi ENE 3.5 mph - N/A   Clear
3:15 AM 59.9 °F 55.4 °F 85% 30.39 in 10.0 mi ENE 4.6 mph - N/A   Clear
3:35 AM 59.4 °F 54.5 °F 84% 30.38 in 10.0 mi ESE 4.6 mph - N/A   Clear
3:55 AM 59.4 °F 54.5 °F 84% 30.38 in 10.0 mi ESE 3.5 mph - N/A   Clear
4:15 AM 58.6 °F 55.0 °F 88% 30.39 in 10.0 mi NW 5.8 mph - N/A   Clear
4:35 AM 58.1 °F 54.5 °F 88% 30.39 in 10.0 mi NW 3.5 mph - N/A   Clear
4:55 AM 57.7 °F 54.7 °F 90% 30.40 in 10.0 mi Calm Calm - N/A   Clear
5:15 AM 57.6 °F 54.7 °F 90% 30.40 in 10.0 mi SSW 3.5 mph - N/A   Clear
5:35 AM 57.2 °F 54.5 °F 91% 30.40 in 10.0 mi SW 3.5 mph - N/A   Clear
5:55 AM 56.7 °F 53.8 °F 90% 30.39 in 10.0 mi WNW 4.6 mph - N/A   Clear
6:15 AM 55.4 °F 53.1 °F 92% 30.38 in 10.0 mi NNW 3.5 mph - N/A   Clear
6:35 AM 55.8 °F 53.2 °F 91% 30.38 in 10.0 mi North 3.5 mph - N/A   Clear
6:55 AM 57.0 °F 54.1 °F 90% 30.38 in 10.0 mi North 3.5 mph - N/A   Clear
7:15 AM 59.0 °F 54.9 °F 86% 30.38 in 10.0 mi Calm Calm - N/A   Clear
7:35 AM 60.3 °F 55.0 °F 83% 30.38 in 10.0 mi NNE 6.9 mph - N/A   Clear
7:55 AM 61.5 °F 55.6 °F 81% 30.38 in 10.0 mi North 6.9 mph - N/A   Clear
8:15 AM 62.2 °F 55.8 °F 79% 30.38 in 10.0 mi North 4.6 mph - N/A   Clear
8:35 AM 61.9 °F 55.4 °F 79% 30.37 in 10.0 mi North 4.6 mph - N/A   Clear
8:55 AM 63.3 °F 56.3 °F 78% 30.37 in 10.0 mi NNW 5.8 mph - N/A   Clear
9:15 AM 63.7 °F 55.9 °F 76% 30.37 in 10.0 mi NNW 5.8 mph - N/A   Clear
9:35 AM 64.6 °F 56.1 °F 74% 30.37 in 10.0 mi NW 4.6 mph - N/A   Clear
9:55 AM 65.1 °F 55.9 °F 72% 30.35 in 10.0 mi NNW 4.6 mph - N/A   Clear
10:15 AM 66.6 °F 53.4 °F 63% 30.35 in 10.0 mi West 3.5 mph - N/A   Clear
10:35 AM 67.8 °F 54.3 °F 62% 30.35 in 10.0 mi South 3.5 mph - N/A   Clear
10:55 AM 68.9 °F 54.9 °F 61% 30.34 in 10.0 mi Calm Calm - N/A   Clear
11:15 AM 69.4 °F 54.9 °F 60% 30.33 in 10.0 mi NW 3.5 mph - N/A   Clear
11:35 AM 70.9 °F 55.4 °F 58% 30.33 in 10.0 mi SW 4.6 mph - N/A   Clear
11:55 AM 71.8 °F 55.6 °F 57% 30.31 in 10.0 mi SSW 3.5 mph - N/A   Clear
12:15 PM 72.5 °F 54.9 °F 54% 30.31 in 10.0 mi West 3.5 mph - N/A   Clear
12:35 PM 73.9 °F 55.6 °F 53% 30.31 in 10.0 mi SSW 6.9 mph - N/A   Clear
12:55 PM 75.4 °F 53.2 °F 46% 30.29 in 10.0 mi SSW 4.6 mph - N/A   Clear
1:15 PM 76.5 °F 53.4 °F 45% 30.28 in 10.0 mi SSW 8.1 mph - N/A   Clear
1:35 PM 77.2 °F 52.3 °F 42% 30.27 in 10.0 mi SSW 3.5 mph - N/A   Clear
1:55 PM 77.2 °F 53.1 °F 43% 30.26 in 10.0 mi SSW 9.2 mph - N/A   Clear
2:15 PM 79.3 °F 52.3 °F 39% 30.25 in 10.0 mi WSW 6.9 mph - N/A   Scattered Clouds
2:35 PM 78.8 °F 51.1 °F 38% 30.24 in 10.0 mi SSW 11.5 mph 20.7 mph N/A   Mostly Cloudy
2:55 PM 79.3 °F 53.2 °F 40% 30.23 in 10.0 mi WSW 12.7 mph 19.6 mph N/A   Mostly Cloudy
3:15 PM 78.3 °F 52.3 °F 40% 30.22 in 10.0 mi SSW 13.8 mph - N/A   Mostly Cloudy
3:35 PM 79.0 °F 52.2 °F 39% 30.21 in 10.0 mi SW 9.2 mph - N/A   Scattered Clouds
3:55 PM 79.7 °F 52.2 °F 38% 30.20 in 10.0 mi SW 10.4 mph 16.1 mph N/A   Scattered Clouds
4:15 PM 79.9 °F 51.6 °F 37% 30.19 in 10.0 mi South 12.7 mph 17.3 mph N/A   Scattered Clouds
4:35 PM 80.1 °F 49.8 °F 35% 30.19 in 10.0 mi South 6.9 mph 17.3 mph N/A   Scattered Clouds
4:55 PM 80.6 °F 49.3 °F 33% 30.17 in 10.0 mi SSW 12.7 mph 19.6 mph N/A   Clear
5:15 PM 80.1 °F 48.6 °F 33% 30.17 in 10.0 mi SSW 12.7 mph 18.4 mph N/A   Clear
5:35 PM 79.9 °F 47.3 °F 32% 30.17 in 10.0 mi SSW 12.7 mph - N/A   Clear
5:55 PM 78.3 °F 49.1 °F 36% 30.17 in 10.0 mi SSW 15.0 mph - N/A   Clear
6:15 PM 77.9 °F 48.2 °F 35% 30.17 in 10.0 mi SSW 16.1 mph - N/A   Clear
6:35 PM 76.1 °F 50.0 °F 40% 30.16 in 10.0 mi SSW 15.0 mph - N/A   Clear
6:55 PM 75.0 °F 50.2 °F 42% 30.17 in 10.0 mi SSW 12.7 mph - N/A   Clear
7:15 PM 73.6 °F 52.0 °F 47% 30.17 in 10.0 mi SW 13.8 mph - N/A   Clear
7:35 PM 72.5 °F 53.6 °F 51% 30.17 in 10.0 mi SW 10.4 mph - N/A   Clear
7:55 PM 71.2 °F 55.4 °F 57% 30.17 in 10.0 mi SW 10.4 mph - N/A   Clear
8:15 PM 70.0 °F 55.8 °F 61% 30.18 in 10.0 mi SW 10.4 mph - N/A   Clear
8:35 PM 68.2 °F 56.3 °F 66% 30.18 in 10.0 mi SW 6.9 mph - N/A   Clear
8:55 PM 66.9 °F 56.5 °F 69% 30.19 in 10.0 mi SW 6.9 mph - N/A   Clear
9:15 PM 66.0 °F 57.0 °F 73% 30.19 in 10.0 mi SSW 8.1 mph - N/A   Clear
9:35 PM 65.3 °F 57.6 °F 76% 30.20 in 10.0 mi South 6.9 mph - N/A   Clear
9:55 PM 64.2 °F 58.3 °F 81% 30.21 in 10.0 mi South 5.8 mph - N/A   Clear
10:15 PM 63.9 °F 58.1 °F 81% 30.21 in 10.0 mi South 5.8 mph - N/A   Clear
10:35 PM 63.5 °F 58.3 °F 83% 30.21 in 10.0 mi SSE 4.6 mph - N/A   Clear
10:55 PM 63.5 °F 58.3 °F 83% 30.21 in 10.0 mi South 4.6 mph - N/A   Clear
11:15 PM 62.8 °F 58.1 °F 85% 30.21 in 10.0 mi South 6.9 mph - N/A   Clear
11:35 PM 62.4 °F 58.1 °F 86% 30.21 in 10.0 mi South 5.8 mph - N/A   Clear
11:55 PM 62.6 °F 58.3 °F 86% 30.20 in 10.0 mi SSE 5.8 mph - N/A   Clear